Location: Marcé
(47.5801°N, 0.3280°W)
Time: 17:05:09
(UTC+02:00)

ACS3 Solar Sail - Pass Details

Date: 22 June 2024
Orbit: 992 x 1023 km, 97.4° (Epoch: 12 July)

Event Time Altitude Azimuth Distance (km) Brightness Sun altitude
Exits shadow 23:15:39 10° 161° (SSE) 2,777 6.6 -9.6°
Reaches altitude 10° 23:15:41 10° 161° (SSE) 2,762 6.6 -9.6°
Maximum altitude 23:21:55 81° 75° (ENE) 1,014 4.9 -10.2°
Drops below altitude 10° 23:28:09 10° 349° (N) 2,768 8.3 -10.9°
Sets 23:30:38 0° 349° (N) 3,721 9.2 -11.1°
